Location: Piotrkow Trybunalski
(51.4000°N, 19.6830°E)
Time: 00:27:27
(UTC+02:00)

AO-73 - Visible Passes

Search period start: 01 April 2023 00:00
Search period end: 11 April 2023 00:00
Orbit: 573 x 649 km, 97.7° (Epoch: 31 March)

Date Brightness Start Highest point End Pass type
(mag) Time Alt. Az. Time Alt. Az. Time Alt. Az.
01 Apr ? 03:33:23 10° NE 03:36:50 25° E 03:39:32 13° SE visible
01 Apr ? 05:09:03 10° N 05:12:56 39° WNW 05:16:32 11° SW visible
02 Apr ? 03:47:36 10° NNE 03:51:23 33° E 03:54:18 15° SSE visible
02 Apr ? 05:23:42 10° N 05:27:18 29° WNW 05:30:51 10° SW visible
03 Apr ? 04:01:55 10° NNE 04:05:55 46° E 04:09:01 15° S visible
04 Apr ? 04:16:17 10° NNE 04:20:24 65° ESE 04:23:44 15° S visible
05 Apr ? 02:57:06 10° ENE 02:58:12 11° E 02:59:18 10° E visible
05 Apr ? 04:30:41 10° NNE 04:34:50 90° N 04:38:26 13° SSW visible
06 Apr ? 03:10:23 10° NE 03:12:48 15° E 03:15:11 10° SE visible
06 Apr ? 04:45:07 10° N 04:49:13 65° WNW 04:53:07 11° SSW visible
07 Apr ? 03:24:14 10° NE 03:27:20 20° E 03:30:24 10° SE visible
07 Apr ? 04:59:36 10° N 05:03:34 47° WNW 05:07:28 10° SW visible
08 Apr ? 03:38:17 10° NE 03:41:50 27° E 03:45:20 10° SSE visible
08 Apr ? 05:14:07 10° N 05:17:52 34° WNW 05:21:34 10° SW visible
09 Apr ? 03:52:26 10° NNE 03:56:17 37° E 04:00:05 10° SSE visible
10 Apr ? 04:06:40 10° NNE 04:10:41 52° E 04:14:40 10° S visible
